This is the latest recevied weather packets stored in our database for station/object JQ2GLP-13. If no packets are shown the sender has not sent any weather packets the latest 10 day(s).
| Time | Temp. | Humidity | Pressure | Rain* | Wind** | Luminosity | Snow |
|---|---|---|---|---|---|---|---|
| 1777966633 | 19.44° C | 39% | 1016.2 hPa | 0 mm | - | - | - |
| 1777954035 | 20° C | 39% | 1015.4 hPa | 0 mm | - | - | - |
| 1777932433 | 16.67° C | 44% | 1013.6 hPa | 0 mm | - | - | - |
| 1777928831 | 12.78° C | 53% | 1012.3 hPa | 0 mm | - | - | - |
| 1777919832 | 11.67° C | 57% | 1008.9 hPa | 0 mm | - | - | - |
| 1777909033 | 13.33° C | 54% | 1006.5 hPa | 0 mm | - | - | - |
| 1777905433 | 13.89° C | 54% | 1006.2 hPa | 0 mm | - | - | - |
| 1777903633 | 13.89° C | 53% | 1006.1 hPa | 0 mm | - | - | - |
| 1777900032 | 14.44° C | 53% | 1005.4 hPa | 0 mm | - | - | - |
| 1777891034 | 15° C | 54% | 1002.8 hPa | 0 mm | - | - | - |
| 1777882033 | 19.44° C | 45% | 999.4 hPa | 0 mm | - | - | - |
| 1777842432 | 18.89° C | 94% | 995.4 hPa | 0.25 mm | - | - | - |
| 1777819032 | 17.78° C | 94% | 1000.7 hPa | 11.68 mm | - | - | - |
| 1777801033 | 17.22° C | 88% | 1003 hPa | 6.1 mm | - | - | - |
| 1777795633 | 18.89° C | 76% | 1003.7 hPa | 1.78 mm | - | - | - |
| 1777792033 | 20° C | 68% | 1004 hPa | 0 mm | - | - | - |
| 1777788433 | 20.56° C | 69% | 1004.2 hPa | 0 mm | - | - | - |
| 1777786634 | 20.56° C | 68% | 1004.4 hPa | 0 mm | - | - | - |
| 1777783034 | 21.11° C | 69% | 1005.3 hPa | 0 mm | - | - | - |
| 1777781235 | 21.67° C | 66% | 1005.7 hPa | 0 mm | - | - | - |
| 1777775835 | 23.33° C | 57% | 1006.6 hPa | 0 mm | - | - | - |
| 1777774034 | 23.33° C | 50% | 1006.8 hPa | 0 mm | - | - | - |
| 1777772231 | 22.78° C | 48% | 1007.1 hPa | 0 mm | - | - | - |
| 1777766830 | 20.56° C | 50% | 1007.2 hPa | 0 mm | - | - | - |
| 1777756031 | 15.56° C | 64% | 1007.3 hPa | 0 mm | - | - | - |
* Rain latest hour (hover to see other rain measurements)
** Current wind speed in m/s (hover to see current wind gust speed)